Location: Kott?ru
(16.6209°N, 80.6208°E)
Time: 06:18:15
(UTC+00:00)

Hubble Space Telescope - Pass Details

Date: 10 February 2023
Orbit: 527 x 530 km, 28.5° (Epoch: 27 March)

Event Time Altitude Azimuth Distance (km) Brightness Sun altitude
Rises 13:53:40 0° 254° (WSW) 2,643 6.0 -18.6°
Reaches altitude 10° 13:55:57 10° 259° (W) 1,754 4.6 -19.1°
Maximum altitude 13:59:55 55° 337° (NNW) 629 1.1 -20.1°
Enters shadow 14:00:46 45° 23° (NNE) 718 1.1 -20.3°
